Location: Baggettsville
(36.4767°N, 86.7303°W)
Time: 18:20:12
(UTC+00:00)

Envisat - Pass Details

Date: 21 September 2021
Orbit: 764 x 766 km, 98.2° (Epoch: 18 October)

Event Time Altitude Azimuth Distance (km) Brightness Sun altitude
Rises 09:49:41 0° 31° (NNE) 3,235 7.0 -21.5°
Reaches altitude 10° 09:52:40 10° 49° (NE) 2,304 6.4 -20.9°
Maximum altitude 09:56:12 19° 93° (E) 1,763 5.7 -20.2°
Drops below altitude 10° 09:59:44 10° 138° (SE) 2,293 5.8 -19.6°
Sets 10:02:41 0° 156° (SSE) 3,213 6.3 -19.0°
